Time,B instrument,Bx,By,Bz,sigma B,Ion instrument,Status,Tp_par,Tp_perp,carrot,r_sun,clat,clong,earth_he_angle,n_p,vp_x,vp_y,vp_z,vth_p_par,vth_p_perp
1980-08-08 00:41:35,-1,nan,nan,nan,nan,1,3,nan,nan,1697,0.93870568,1.8911839,24.83313,105.03624,nan,399.246,12.3236,38.5029,nan,nan
1980-08-08 01:19:42,-1,nan,nan,nan,nan,1,3,nan,nan,1698,0.93883097,1.7088898,24.402954,104.95764,nan,399.238,12.3212,38.5028,nan,nan
1980-08-08 01:23:41,1,-3.0,4.4,2.1,0.0,1,1,54939.9,72462.0,1698,0.9388417,1.7086222,24.367249,104.95709,2.16678,382.779,14.6999,-5.84657,30.1163,34.587
1980-08-08 02:02:54,1,-2.4,3.8,3.0,0.0,1,1,64161.5,72764.6,1698,0.93894714,1.7059592,24.002686,104.9519,2.23705,382.869,14.4565,-5.78954,32.5458,34.6592
1980-08-08 02:53:03,-1,nan,nan,nan,nan,1,4,nan,nan,1697,0.93906057,1.8826399,23.608551,105.01869,nan,nan,nan,nan,nan,nan
1980-08-08 02:58:27,1,-3.0,3.2,1.86667,0.319722,1,1,99918.0,132217.0,1697,0.93907398,1.8823156,23.557098,105.01802,3.56073,357.72,24.7007,12.4638,40.6144,46.7199
1980-08-08 03:03:51,1,-4.23333,2.5,2.6,0.418994,1,1,66629.7,77295.7,1697,0.93908739,1.8819923,23.505646,105.01735,2.67281,349.804,3.80159,6.22438,33.1659,35.722
1980-08-08 03:09:15,1,-4.83333,1.9,1.76667,0.380058,1,1,56043.9,68247.6,1697,0.93910348,1.8816042,23.454071,105.01656,2.48856,342.369,-5.48996,1.31928,30.4174,33.5661
1980-08-08 03:12:15,1,-3.96667,2.73333,1.43333,0.282843,1,1,70200.3,100520.0,1697,0.93911153,1.8814096,23.426331,105.01616,3.04413,353.48,4.62,-4.28412,34.043,40.7365
1980-08-08 03:17:39,1,-3.23333,3.46667,0.5,0.253859,1,1,92621.3,79975.3,1697,0.93912494,1.8810863,23.378784,105.01549,2.93374,362.904,10.9037,-11.4633,39.1033,36.3359
1980-08-08 03:23:03,1,-2.4,2.76667,-0.2,0.169967,1,1,48244.0,58498.1,1697,0.93914104,1.8806982,23.327209,105.01469,2.44189,365.768,8.92139,-24.5661,28.2215,31.0763
1980-08-08 03:28:27,1,-3.73333,3.23333,0.5,0.194365,1,1,64244.5,91335.1,1697,0.93915445,1.8803749,23.275757,105.01402,2.77924,349.669,6.69397,-15.2163,32.5669,38.8308
1980-08-08 03:33:51,1,-3.05,3.7,0.3,0.278388,1,1,50484.4,74552.8,1697,0.9391678,1.8800507,23.22821,105.01335,2.67845,350.013,8.19412,-23.4001,28.8693,35.0824
1980-08-08 03:39:15,1,-1.0,4.33333,3.46667,0.641179,1,1,68278.0,77377.4,1697,0.93918389,1.8796625,23.176636,105.01256,3.27451,380.722,17.4074,11.0097,33.5736,35.7409
1980-08-08 03:44:39,1,-1.96667,4.36667,1.93333,0.282843,1,1,48931.5,63387.4,1697,0.9391973,1.8793392,23.125183,105.01189,2.57653,368.737,23.9974,-16.0539,28.4218,32.3489
1980-08-08 04:34:45,-1,nan,nan,nan,nan,1,3,nan,nan,1697,0.93933117,1.8761044,22.657562,105.00522,nan,406.562,3.64953,20.7438,nan,nan
1980-08-08 04:40:09,1,3.6,1.0,5.53333,0.188562,1,1,26864.9,33528.4,1697,0.93934727,1.8757162,22.609894,105.00443,3.18423,412.639,-1.22576,17.7356,21.0596,23.5269
1980-08-08 04:45:33,1,4.05,0.825,5.0,0.298957,1,1,36610.7,46753.5,1697,0.93936062,1.875392,22.558441,105.00375,3.10621,407.613,3.65865,20.4221,24.5845,27.7821
1980-08-08 04:50:57,1,4.1,1.1,3.9,0.282843,1,1,34340.1,40128.0,1697,0.93937403,1.8750687,22.506989,105.00308,3.03336,412.046,3.76445,12.8181,23.81,25.7384
1980-08-08 04:56:21,1,3.875,2.35,4.3,0.253722,1,1,42797.2,42254.3,1697,0.93939006,1.8746805,22.45932,105.00229,3.35903,407.143,7.4318,14.0423,26.5806,26.4115
1980-08-08 05:01:45,1,3.1,2.6,4.83333,0.319722,1,1,42709.5,42723.3,1697,0.93940341,1.8743572,22.407867,105.00162,3.18341,399.819,5.85826,23.9848,26.5534,26.5577
1980-08-08 05:07:10,1,2.9,2.8,4.8,0.173205,1,1,42117.6,43332.9,1697,0.93941945,1.8739691,22.356293,105.00081,3.45461,401.929,9.27527,19.7166,26.3688,26.7465
1980-08-08 05:12:33,1,3.225,2.0,5.3,0.248747,1,1,54863.0,50094.8,1697,0.9394328,1.8736458,22.30484,105.00014,3.64982,406.007,3.51895,18.0894,30.0952,28.7577
1980-08-08 05:17:57,1,2.8,2.65,5.125,0.338194,1,1,38301.3,45838.6,1697,0.93944615,1.8733225,22.257294,104.99948,3.28278,403.629,7.87966,19.7203,25.1458,27.5089
1980-08-08 05:23:22,1,2.2,2.1,5.7,0.0,1,1,48566.9,44219.6,1697,0.93946218,1.8729343,22.205719,104.99867,3.47918,398.936,4.19221,27.5222,28.3157,27.0187
1980-08-08 05:28:46,1,2.475,2.4,5.3,0.238485,1,1,39466.1,40384.2,1697,0.93947554,1.872611,22.154266,104.998,3.06787,397.788,11.2604,23.2546,25.5253,25.8204
1980-08-08 05:34:10,1,-1.7,4.15,2.7,0.259808,1,1,100112.0,56281.9,1697,0.93949157,1.8722229,22.106567,104.99719,2.89464,373.539,22.3087,9.73421,40.6539,30.4819
1980-08-08 05:39:34,1,0.025,4.4,3.4,0.248747,1,1,57291.5,43430.8,1697,0.93950492,1.8718996,22.055145,104.99654,2.74717,384.356,23.82,20.7965,30.7541,26.7767
1980-08-08 05:44:58,1,-0.0666667,4.6,3.23333,0.253859,1,1,55394.2,43534.3,1697,0.93951827,1.8715763,22.003693,104.99586,2.49519,385.173,29.8297,7.39005,30.2406,26.8086
1980-08-08 05:50:22,1,-1.33333,4.03333,3.43333,0.424264,1,1,43226.8,33721.2,1697,0.93953431,1.8711882,21.952087,104.99506,2.5727,372.907,23.8048,14.8428,26.7137,23.5944
1980-08-08 05:55:46,1,-1.3,4.3,3.0,0.0,1,1,66197.7,58654.7,1697,0.93954766,1.8708649,21.904541,104.99438,3.44485,371.755,26.2441,7.02116,33.0582,31.1178
1980-08-08 06:01:10,1,0.133333,4.3,1.9,0.149071,1,1,50909.6,39965.6,1697,0.93956363,1.8704767,21.852966,104.99359,2.71659,390.689,25.0543,2.90056,28.9906,25.6863
1980-08-08 06:06:34,1,0.2,4.3,3.4,0.305505,1,1,108360.0,51333.5,1697,0.93957698,1.8701534,21.801514,104.99292,2.90016,389.872,24.1589,10.6254,42.2954,29.1111
1980-08-08 06:11:58,1,0.325,4.2,3.55,0.366572,1,1,69106.9,56314.2,1697,0.93959033,1.8698301,21.753967,104.99225,3.13923,392.258,24.8502,14.5867,33.7768,30.4907
1980-08-08 06:17:22,1,-0.95,2.2,3.5,0.295804,1,1,147797.0,80630.7,1697,0.93960631,1.869442,21.702393,104.99144,3.00656,380.71,4.70348,14.1958,49.3959,36.4845
1980-08-08 06:22:46,1,-0.9,0.625,4.725,0.770552,1,1,142404.0,100622.0,1697,0.93961966,1.8691187,21.65094,104.99077,3.30087,374.225,-21.5747,25.2115,48.4864,40.7572
1980-08-08 06:28:10,1,1.6,0.35,5.5,0.4272,1,1,121104.0,125950.0,1697,0.93963563,1.8687305,21.603271,104.98997,3.95583,399.631,-10.2094,21.7972,44.7134,45.5991
1980-08-08 06:33:34,1,2.2,-0.833333,6.2,0.359011,1,1,47067.2,32747.5,1697,0.93964899,1.8684072,21.551819,104.9893,2.84726,399.646,-18.8546,32.0677,27.8751,23.2513
1980-08-08 06:38:58,1,1.6,0.5,6.1,9.15513e-16,1,1,46272.2,52695.5,1697,0.93966228,1.868083,21.500366,104.98863,3.01956,398.996,3.09259,34.8929,27.6387,29.4947
1980-08-08 06:44:22,1,0.9,1.8,5.5,0.34641,1,1,84983.0,54089.2,1697,0.93967831,1.8676958,21.448761,104.98782,2.59496,401.384,6.68011,31.4117,37.4562,29.8822
1980-08-08 06:49:46,1,-0.7,2.9,4.43333,0.478423,1,1,67266.8,73752.0,1697,0.9396916,1.8673716,21.401215,104.98715,2.71216,377.039,16.1163,28.3679,33.3241,34.8935
1980-08-08 06:55:10,1,-1.875,2.825,2.525,1.51513,1,1,161978.0,92434.6,1697,0.93970764,1.8669844,21.34964,104.98634,3.66351,385.749,12.5482,24.5908,51.7113,39.0639
1980-08-08 07:00:34,1,0.275,1.75,6.0,0.253722,1,1,68285.3,67640.9,1697,0.93972099,1.8666611,21.298187,104.98569,2.72148,402.546,8.74499,40.5228,33.5754,33.4166
1980-08-08 07:05:58,1,2.46667,1.0,5.1,0.329983,1,1,99047.1,76402.6,1697,0.93973428,1.8663368,21.250641,104.98502,3.23324,423.97,-2.92523,31.8322,40.437,35.515
1980-08-08 07:11:22,1,2.65,1.05,5.0,0.273861,1,1,100406.0,96665.7,1697,0.93975019,1.8659496,21.199066,104.98421,3.03972,422.61,-6.3543,21.8422,40.7135,39.9479
1980-08-08 07:16:46,1,2.7,0.95,4.9,0.259808,1,1,87675.4,77876.5,1697,0.93976355,1.8656263,21.147614,104.98354,3.07886,419.026,-5.73689,22.5626,38.0449,35.8559
1980-08-08 07:22:10,1,2.35,1.15,5.35,0.278388,1,1,76769.7,63331.3,1697,0.93977946,1.8652382,21.099915,104.98273,2.49977,417.334,-0.494224,31.7223,35.6002,32.3346
1980-08-08 07:27:34,-1,nan,nan,nan,nan,1,4,nan,nan,1697,0.93979281,1.8649149,21.048462,104.98206,nan,nan,nan,nan,nan,nan
1980-08-08 07:32:58,1,-3.6,2.26667,0.9,0.169967,1,1,72421.4,79277.5,1697,0.9398061,1.8645916,20.997009,104.98138,2.80992,358.59,6.94844,-2.18088,34.5773,36.177
1980-08-08 07:38:22,1,-3.6,2.66667,2.9,0.385861,1,1,78359.0,75930.3,1697,0.93982208,1.8642035,20.945435,104.98059,2.75778,364.934,12.8673,19.5038,35.9668,35.4051
1980-08-08 07:43:46,1,-3.26667,2.36667,2.13333,0.244949,1,1,128517.0,105721.0,1697,0.93983537,1.8638802,20.897888,104.97992,3.32716,372.236,9.30242,13.5932,46.0616,41.777
1980-08-08 07:49:09,1,-4.23333,2.6,1.8,0.457044,1,1,100440.0,73676.8,1697,0.93985134,1.863492,20.846313,104.97911,3.01841,365.087,6.08976,14.9547,40.7204,34.8757
1980-08-08 07:55:09,1,-4.03333,2.86667,1.3,0.210819,1,1,70813.6,54684.4,1697,0.93986726,1.8631048,20.790802,104.9783,2.28335,374.883,8.68901,8.41689,34.1913,30.0462
1980-08-08 08:00:33,1,-4.0,3.0,0.5,0.0,1,1,70302.5,57914.0,1697,0.93988061,1.8627815,20.73938,104.97765,2.08969,378.754,10.86,9.86882,34.0677,30.9207
1980-08-08 08:05:57,1,-4.73333,2.4,1.8,0.262467,1,1,102970.0,60331.4,1697,0.93989384,1.8624582,20.691833,104.97697,2.65886,378.112,3.92801,15.994,41.2299,31.5595
1980-08-08 08:10:46,1,-4.5,1.9,1.83333,0.188562,1,1,62968.9,85431.2,1697,0.93990713,1.8621349,20.644287,104.9763,2.73374,356.4,-1.4921,9.02329,32.2419,37.5549
1980-08-08 08:16:10,1,-5.13333,1.46667,1.2,0.210819,1,1,90395.8,76314.8,1697,0.93992311,1.8617468,20.596588,104.97549,2.63824,373.48,-5.38728,16.0052,38.6306,35.4946
1980-08-08 08:21:34,1,-4.375,0.9,1.38778e-17,0.402337,1,1,89568.1,76597.2,1697,0.93993634,1.8614235,20.545135,104.97482,2.63061,372.766,-1.24189,3.34885,38.4534,35.5602
1980-08-08 08:26:58,1,-4.5,0.25,-0.3,0.180278,1,1,63770.0,80485.6,1697,0.93994963,1.8611002,20.493683,104.97415,3.04281,361.829,0.766404,1.89549,32.4464,36.4516
1980-08-08 08:32:22,1,-4.2,0.6,-0.3,0.0,1,1,68502.8,64989.1,1697,0.93996561,1.8607121,20.442108,104.97334,2.42297,367.53,-0.122546,1.75984,33.6288,32.755
1980-08-08 08:37:46,1,-3.76667,-1.26667,-1.13333,0.282843,1,1,56175.0,57085.5,1697,0.9399789,1.8603897,20.394562,104.97267,2.49542,366.163,-9.37569,-1.6144,30.453,30.6988
1980-08-08 08:43:10,1,-4.56667,1.3,-0.566667,0.380058,1,1,55614.2,77326.7,1697,0.93999481,1.8600016,20.342957,104.97186,2.54667,366.391,-2.44316,8.53801,30.3006,35.7292
1980-08-08 08:48:34,1,-3.93333,0.733333,-1.36667,0.282843,1,1,62589.6,53584.6,1697,0.9400081,1.8596783,20.291504,104.97119,2.42007,377.407,-2.29977,1.51062,32.1447,29.7425
1980-08-08 08:53:58,1,-4.0,1.1,-1.5,0.0,1,1,56334.5,64453.4,1697,0.9400214,1.859355,20.243958,104.97052,2.47575,373.729,6.6969,5.78037,30.4962,32.6198
1980-08-08 08:59:22,-1,nan,nan,nan,nan,1,3,nan,nan,1697,0.94003731,1.8589668,20.192383,104.96971,nan,372.525,2.92225,6.3711,nan,nan
1980-08-08 09:15:34,-1,nan,nan,nan,nan,1,3,nan,nan,1697,0.94007975,1.857933,20.041779,104.96756,nan,373.665,-30.2104,2.72315,nan,nan
1980-08-08 09:20:58,1,-4.3,0.233333,-1.1,0.537484,1,1,69630.4,80029.4,1697,0.94009298,1.8576097,19.990326,104.96689,2.96033,369.334,3.77968,4.73671,33.9045,36.3482
1980-08-08 09:26:22,1,-4.6,0.425,-0.3,0.286138,1,1,67272.8,63992.4,1697,0.9401089,1.8572216,19.938751,104.96608,2.68419,365.931,-6.34631,8.25318,33.3256,32.5029
1980-08-08 09:31:46,1,-4.675,1.325,0.0,0.365718,1,1,68740.1,74485.0,1697,0.94012219,1.8568983,19.891205,104.96541,2.96011,368.045,-4.50363,7.77942,33.687,35.0665
1980-08-08 09:37:10,1,-4.9,1.2,-0.7,0.4,1,1,71808.0,77568.1,1697,0.94013804,1.8565111,19.8396,104.9646,2.44783,372.328,-2.47475,7.04142,34.4306,35.7849
1980-08-08 09:42:34,1,-3.73333,0.333333,-1.83333,0.216025,1,1,27231.2,52347.4,1697,0.94015133,1.8561878,19.788147,104.96393,1.91828,383.109,-5.71256,6.87844,21.2027,29.3972
1980-08-08 09:47:58,1,-4.03333,0.466667,-2.03333,0.282843,1,1,28676.2,42863.1,1697,0.94016457,1.8558645,19.740601,104.96326,1.80018,386.334,-10.0566,0.85152,21.758,26.6011
1980-08-08 09:53:22,1,-3.83333,0.533333,-2.03333,0.326599,1,1,58471.4,55059.8,1697,0.94018048,1.8554764,19.689026,104.96245,2.25107,378.56,-7.11423,2.58442,31.0692,30.1492
1980-08-08 10:04:10,1,-4.23333,0.533333,-2.03333,0.282843,1,1,29231.3,51069.8,1697,0.94020963,1.8547659,19.589874,104.96097,1.89099,383.65,-7.25676,3.81623,21.9676,29.0362
1980-08-08 10:09:34,1,-4.36667,0.466667,-1.9,0.210819,1,1,37456.3,41615.8,1697,0.94022286,1.8544426,19.538422,104.9603,1.91406,384.843,-16.851,1.77133,24.8668,26.2112
1980-08-08 10:14:58,1,-4.0,0.625,-2.0,0.248747,1,1,24906.7,39638.9,1697,0.94023609,1.8541193,19.486969,104.95963,1.85601,386.836,-5.55888,1.49724,20.2776,25.5811
1980-08-08 10:20:22,1,-3.9,0.65,-2.2,0.269258,1,1,20307.7,54424.0,1697,0.94025201,1.8537321,19.435394,104.95882,1.76888,385.224,-4.43997,-2.41644,18.31,29.9746
1980-08-08 10:25:46,1,-3.96667,0.233333,-1.9,0.312694,1,1,29958.9,50979.0,1697,0.94026524,1.8534088,19.387848,104.95815,1.85653,379.446,-10.6959,6.11801,22.2393,29.0104
1980-08-08 10:31:10,1,-4.1,0.566667,-2.03333,0.380058,1,1,28535.0,45545.9,1697,0.94028109,1.8530207,19.336243,104.95734,1.77728,382.763,-13.0372,3.6487,21.7043,27.421
1980-08-08 10:36:34,1,-4.05,0.15,-2.1,0.264575,1,1,26038.6,42254.0,1697,0.94029433,1.8526983,19.28479,104.95667,1.7287,382.379,-5.82831,1.97742,20.7332,26.4114
1980-08-08 10:41:58,1,-4.1,1.025,-1.9,0.454835,1,1,23670.2,38290.3,1697,0.94030756,1.852375,19.237244,104.95598,2.2073,337.123,59.9296,8.78614,19.7678,25.1421
1980-08-08 10:47:40,-1,nan,nan,nan,nan,1,3,nan,nan,1697,0.94032341,1.8519869,19.181732,104.95517,nan,381.207,-11.4905,7.14681,nan,nan
1980-08-08 10:52:46,1,-4.96667,1.4,-1.16667,0.156347,1,1,41611.0,49720.4,1697,0.94033664,1.8516645,19.134186,104.9545,2.03996,380.386,-4.01915,10.7091,26.2097,28.65
1980-08-08 10:58:10,1,-4.825,2.0,-0.575,0.410792,1,1,29983.5,53154.4,1697,0.94035256,1.8512764,19.086517,104.95369,1.96722,379.522,5.32152,17.5052,22.2484,29.6229
1980-08-08 11:03:34,1,-4.4,2.05,-0.9,0.390512,1,1,51423.8,51814.1,1697,0.94036573,1.8509531,19.035065,104.95302,2.24566,380.492,5.03356,7.97371,29.1367,29.247
1980-08-08 11:08:58,1,-4.16667,1.63333,-1.5,0.210819,1,1,36721.5,46550.1,1697,0.94037896,1.8506298,18.983612,104.95235,2.09762,381.318,-3.88987,3.49093,24.6217,27.7216
1980-08-08 11:14:22,1,-4.23333,1.43333,-1.23333,0.282843,1,1,29772.7,52385.6,1697,0.94039482,1.8502426,18.932007,104.95154,2.34091,381.571,0.15444,8.22657,22.1701,29.4079
1980-08-08 11:19:46,1,-4.675,0.55,-1.5,0.263391,1,1,41439.9,49949.6,1697,0.94040805,1.8499193,18.88446,104.95087,2.11697,379.879,-7.72534,9.03882,26.1557,28.716
1980-08-08 11:25:10,1,-4.4,1.15,-1.2,0.25,1,1,32282.3,49157.3,1697,0.94042385,1.8495321,18.832886,104.95006,2.20678,382.728,-1.57095,7.05653,23.0855,28.4874
1980-08-08 11:30:34,1,-4.36667,0.8,-1.23333,0.352767,1,1,36832.7,48037.8,1697,0.94043708,1.8492088,18.781433,104.94939,2.19218,376.596,-7.49273,5.32584,24.659,28.1611
1980-08-08 11:35:58,1,-4.93333,1.43333,-0.366667,0.258199,1,1,32506.7,53599.5,1697,0.94045031,1.8488855,18.733856,104.9487,2.12733,376.594,1.96434,13.7657,23.1656,29.7467
1980-08-08 11:41:22,1,-5.26667,-0.0333333,-0.9,0.466667,1,1,35776.3,47409.7,1697,0.94046611,1.8484983,18.682281,104.94789,2.031,371.381,-10.8001,13.7465,24.3028,27.9764
1980-08-08 11:46:46,1,-4.96667,0.4,-1.26667,0.24037,1,1,34353.5,43883.9,1697,0.94047934,1.848175,18.630829,104.94722,2.23156,378.053,-13.1527,7.86217,23.8146,26.916
1980-08-08 11:52:10,1,-4.63333,1.6,-1.1,0.385861,1,1,26066.3,46578.7,1697,0.94049519,1.8477879,18.58313,104.94641,2.15099,376.674,-3.46344,7.9997,20.7443,27.7301
1980-08-08 11:57:34,1,-4.35,1.275,-1.1,0.24367,1,1,37366.8,55991.9,1697,0.94050843,1.8474646,18.531677,104.94574,2.22712,379.657,7.42795,9.78385,24.8371,30.4033
1980-08-08 12:02:58,1,-4.45,1.45,-1.3,0.339116,1,1,38172.1,44177.8,1697,0.9405216,1.8471413,18.480225,104.94507,2.18441,381.54,3.26688,4.87906,25.1033,27.006
1980-08-08 12:08:22,1,-4.5,-0.425,-1.5,0.34187,1,1,38045.6,55216.5,1697,0.94053745,1.8467541,18.42865,104.94426,2.58704,379.473,-5.84817,6.49538,25.0617,30.192
1980-08-08 12:13:46,1,-0.966667,4.53333,1.16667,0.294392,1,1,165572.0,67818.5,1697,0.94055063,1.8464308,18.381104,104.94359,3.65182,405.459,26.1751,19.5264,52.2819,33.4605
1980-08-08 12:19:10,1,-2.15,3.925,0.6,0.392906,1,1,51545.9,52015.3,1697,0.94056642,1.8460436,18.329498,104.94276,2.65945,392.525,24.3532,8.73961,29.1712,29.3038
1980-08-08 12:24:34,1,-3.1,3.15,0.125,1.01458,1,1,33309.1,55193.5,1697,0.94057965,1.8457203,18.278046,104.94209,2.76499,377.815,22.5356,27.9045,23.4498,30.1857
1980-08-08 12:29:57,1,-2.825,2.525,-1.425,0.275,1,1,38161.3,54416.0,1697,0.94059283,1.845397,18.230499,104.94142,2.51277,382.293,6.12688,-5.24552,25.0998,29.9724
1980-08-08 12:44:21,-1,nan,nan,nan,nan,1,3,nan,nan,1697,0.9406324,1.8444281,18.095642,104.93939,nan,378.821,-17.2786,-5.06816,nan,nan
1980-08-08 12:49:09,-1,nan,nan,nan,nan,1,4,nan,nan,1698,0.94066662,1.6621745,17.978607,104.86533,nan,nan,nan,nan,nan,nan
1980-08-08 12:59:57,-1,nan,nan,nan,nan,1,3,nan,nan,1697,0.94067192,1.8434591,17.949097,104.93736,nan,373.927,11.4126,34.2795,nan,nan
1980-08-08 13:10:45,1,-4.8,1.7,1.2,0.0,1,1,45510.7,50539.4,1697,0.94070089,1.8427486,17.849945,104.93588,2.68759,376.651,3.01874,-0.0095206,27.4103,28.885
1980-08-08 13:21:33,1,-4.8,1.25,-0.15,0.254951,1,1,26514.9,54677.8,1697,0.94072986,1.8420382,17.746887,104.93439,2.71117,371.12,-2.69179,1.2758,20.922,30.0444
1980-08-08 13:29:22,1,-2.6,2.0,-1.4,0.223607,1,1,32030.2,62799.9,1697,0.9407509,1.8415213,17.675507,104.9333,2.69456,387.662,10.7744,-4.74689,22.9952,32.1986
1980-08-08 13:40:10,1,-4.4,1.9,-0.3,0.0,1,1,39134.4,54026.1,1697,0.94077986,1.8408108,17.576355,104.93182,2.41819,366.104,-6.65807,16.5421,25.4178,29.8648
1980-08-08 13:50:58,1,-3.8,0.8,-1.5,0.0,1,1,33462.8,48796.6,1697,0.94080615,1.8401651,17.47345,104.93047,2.47031,375.945,-14.0403,-1.43758,23.5039,28.3826
1980-08-08 14:01:46,1,-4.0,0.2,-1.1,0.0,1,1,47367.1,61017.7,1697,0.94083512,1.8394547,17.374298,104.92899,2.80121,380.016,-20.7426,-3.05924,27.9638,31.7385
1980-08-08 14:12:34,1,-3.8,2.6,-0.3,0.0,1,1,36308.5,56133.2,1698,0.94088608,1.6565287,17.197815,104.85406,2.72737,375.745,8.39813,6.86576,24.4829,30.4416
1980-08-08 14:23:08,1,-1.6,3.6,-0.2,0.0,1,1,50203.5,51437.7,1697,0.94089288,1.8380337,17.172119,104.92601,2.85563,365.245,-17.043,12.688,28.7889,29.1406
1980-08-08 14:23:22,1,-1.9,3.4,-1.0,0.0,1,1,38527.8,52884.6,1697,0.94089288,1.8380337,17.172119,104.92601,2.22099,398.216,29.155,1.44834,25.22,29.5476
1980-08-08 14:34:10,1,-2.85,1.6,-1.6,0.206155,1,1,31772.7,42773.8,1697,0.94092178,1.8373241,17.072968,104.92451,2.23981,373.498,8.43966,2.91841,22.9026,26.5734
1980-08-08 15:06:20,-1,nan,nan,nan,nan,1,3,nan,nan,1697,0.94100589,1.8352575,16.771759,104.92018,nan,369.45,-10.6274,3.82034,nan,nan
1980-08-08 15:49:32,-1,nan,nan,nan,nan,1,3,nan,nan,1697,0.94111866,1.8324814,16.367462,104.91434,nan,373.413,-5.05224,7.23462,nan,nan
1980-08-08 16:32:44,-1,nan,nan,nan,nan,1,3,nan,nan,1697,0.94123119,1.8297062,15.967102,104.90851,nan,381.255,26.4797,14.6822,nan,nan
1980-08-08 17:15:57,-1,nan,nan,nan,nan,1,3,nan,nan,1697,0.94134367,1.82693,15.562836,104.90266,nan,368.941,7.48852,9.90238,nan,nan
1980-08-08 17:59:09,-1,nan,nan,nan,nan,1,3,nan,nan,1697,0.94145864,1.824091,15.158417,104.89668,nan,420.578,-6.67796,38.3188,nan,nan
1980-08-08 18:42:21,-1,nan,nan,nan,nan,1,3,nan,nan,1697,0.94157082,1.8213167,14.758026,104.89082,nan,407.155,-58.5534,24.9076,nan,nan
1980-08-08 20:25:51,-1,nan,nan,nan,nan,1,4,nan,nan,1697,0.94183886,1.8146725,13.790863,104.87679,nan,nan,nan,nan,nan,nan
1980-08-08 21:22:51,1,-7.3,4.66667,0.466667,0.5696,1,1,81722.7,111472.0,1697,0.94198686,1.8109961,13.259613,104.86899,4.99035,386.418,-30.5653,15.113,36.7307,42.8983
1980-08-08 21:24:22,1,-7.93333,3.23333,-0.0666667,0.316228,1,1,69605.4,128067.0,1698,0.94201332,1.6273354,13.174286,104.79538,5.62592,379.662,-36.142,29.4509,33.8984,45.9807
1980-08-08 21:25:33,1,-8.03333,0.7,-1.96667,0.352767,1,1,81256.1,118302.0,1697,0.94199461,1.8108025,13.235779,104.86858,5.32217,388.422,-13.8285,42.8193,36.6257,44.1931
1980-08-08 21:27:05,1,-7.8,1.625,-0.125,0.379144,1,1,41620.7,146656.0,1697,0.94199979,1.8106728,13.219879,104.8683,4.45131,370.635,-44.1031,29.221,26.2127,49.2049
1980-08-08 21:29:47,1,-6.25,0.625,-2.025,0.928036,1,1,164269.0,188263.0,1697,0.94200504,1.810544,13.196167,104.86804,6.20666,401.355,-50.5172,4.51259,52.0758,55.7494
1980-08-08 21:32:29,1,-6.9,1.4,-1.43333,0.329983,1,1,105073.0,226037.0,1697,0.94201279,1.8103504,13.172333,104.86763,6.02744,385.964,-54.5413,18.7213,41.6488,61.0868
1980-08-08 21:35:11,1,-7.3,2.36667,-1.73333,0.301846,1,1,63966.1,155068.0,1697,0.9420206,1.8101568,13.144562,104.86722,5.27303,383.598,-43.7802,13.3013,32.4962,50.5964
1980-08-08 21:37:53,1,-6.26667,1.5,-1.9,0.221108,1,1,154479.0,234932.0,1697,0.94202578,1.8100281,13.12085,104.86694,6.67073,389.645,-53.8817,12.3442,50.5001,62.2772
1980-08-08 21:40:35,1,-6.3,1.0,-2.25,0.998749,1,1,123579.0,190815.0,1697,0.94203353,1.8098345,13.097015,104.86653,6.0738,392.665,-58.7111,7.89774,45.1679,56.1261
1980-08-08 21:43:17,-1,nan,nan,nan,nan,1,4,nan,nan,1697,0.94204134,1.8096409,13.069244,104.86612,nan,nan,nan,nan,nan,nan
1980-08-08 21:45:59,1,-7.9,2.9,-0.2,0.0,1,1,82278.1,176668.0,1697,0.94204909,1.8094473,13.04541,104.86571,6.43493,387.725,-35.1718,20.7971,36.8553,54.0053
1980-08-08 21:48:41,1,-7.875,3.8,-0.5,0.349106,1,1,88235.1,159065.0,1697,0.94205427,1.8093185,13.017792,104.86543,6.068,387.439,-33.0756,20.3791,38.1662,51.2442
1980-08-08 21:51:23,1,-7.06667,4.2,-0.166667,0.38873,1,1,97848.8,259910.0,1697,0.94206208,1.8091249,12.993927,104.86502,6.15788,386.944,-32.1716,16.7987,40.1916,65.5043
1980-08-08 21:54:05,1,-8.36667,1.93333,-0.6,0.210819,1,1,91533.8,150922.0,1697,0.94206983,1.8089314,12.970093,104.86461,6.35364,382.231,-45.548,17.738,38.8731,49.9153
1980-08-08 21:56:47,1,-8.46667,1.3,-0.866667,0.380058,1,1,65774.8,143993.0,1697,0.94207501,1.8088026,12.942474,104.86433,6.18468,381.454,-48.1254,17.313,32.9524,48.756
1980-08-08 21:59:29,1,-8.26667,-0.2,-0.666667,0.494413,1,1,74436.1,154418.0,1697,0.94208282,1.808609,12.91864,104.86394,6.48325,376.672,-46.4745,23.1543,35.055,50.4901
1980-08-08 22:02:11,1,-7.525,-1.175,-1.7,0.40466,1,1,65683.8,131678.0,1697,0.94209057,1.8084154,12.894775,104.86353,6.02453,379.683,-57.8264,16.5933,32.9296,46.6245
1980-08-08 22:04:53,1,-7.2,-2.425,-1.4,0.248747,1,1,118231.0,207682.0,1697,0.94209576,1.8082867,12.867157,104.86325,5.95393,387.122,-65.2313,16.3807,44.1798,58.5541
1980-08-08 22:07:33,1,-7.35,-2.625,-1.1,0.907951,1,1,70005.2,153671.0,1697,0.94210356,1.8080931,12.843323,104.86284,6.0817,380.662,-73.3825,19.8654,33.9956,50.3678
1980-08-08 22:52:33,-1,nan,nan,nan,nan,1,3,nan,nan,1697,0.94222003,1.805192,12.423096,104.85667,nan,394.575,-73.5917,-1.98995,nan,nan
1980-08-08 22:55:15,-1,nan,nan,nan,nan,1,3,nan,nan,1697,0.94222778,1.8049994,12.399231,104.85626,nan,413.424,-55.4134,-14.3008,nan,nan
1980-08-08 22:57:57,1,-4.25,-1.475,-4.7,0.253722,1,1,161058.0,175442.0,1697,0.94223297,1.8048697,12.375519,104.85599,6.729,408.15,-69.2593,-6.61379,51.5643,53.8176
1980-08-08 23:00:39,1,-3.175,-1.35,-5.4,0.509289,1,1,97264.4,156309.0,1697,0.94224077,1.804677,12.347778,104.85559,5.90649,416.782,-58.4787,-17.6497,40.0714,50.7983
1980-08-08 23:03:24,1,-4.325,-0.85,-4.9,0.899653,1,1,105567.0,156993.0,1697,0.94224852,1.8044834,12.323944,104.85518,5.92052,399.815,-70.0668,-6.47386,41.7467,50.9094
1980-08-08 23:06:06,1,-4.775,-0.975,-5.0,0.322102,1,1,78205.6,146509.0,1697,0.94225627,1.8042898,12.296173,104.85477,5.73069,398.158,-55.4442,-11.0302,35.9316,49.1802
1980-08-08 23:08:48,1,-5.3,-1.825,-2.6,0.807388,1,1,215041.0,196333.0,1697,0.9422614,1.8041611,12.272461,104.85449,7.48976,398.013,-64.0684,8.5725,59.5824,56.9318
1980-08-08 23:11:30,1,-2.55,0.05,-0.6,0.655744,1,1,202443.0,283680.0,1697,0.94226915,1.8039675,12.248627,104.85408,10.323,406.114,-57.8129,13.4628,57.8109,68.434
1980-08-08 23:14:12,1,-5.325,-1.4,-4.125,0.379144,1,1,51359.3,120539.0,1697,0.9422769,1.8037739,12.220856,104.85367,5.28363,392.199,-60.9855,-6.18026,29.1184,44.6089
1980-08-08 23:16:54,1,-5.675,-1.6,-4.5,0.178536,1,1,53786.5,132690.0,1697,0.94228208,1.8036451,12.197144,104.85339,4.97483,396.534,-62.2686,-10.1179,29.7985,46.8033
1980-08-08 23:19:36,1,-6.4,-1.425,-3.6,0.356195,1,1,59325.9,125175.0,1697,0.94228983,1.8034515,12.173309,104.85298,5.39395,390.034,-59.7973,-0.550216,31.2954,45.4587